GB-0356 weather

Chilsfold Farm Airstrip
England, United Kingdom

Public forecast

Using degrees Celsius for public forecast. Weather courtesy of forecast.io.

METAR (pilot weather report)

Report is more than 6 hours old.

Closest report is Farnborough Airport, 14.7 nm (27.2 km) NNW. Retrieved 2018/07/18 20:20 UTC (7 hours ago):

EGLF 182020Z 24004KT CAVOK 19/11 Q1019

TAF (pilot weather forecast)

Forecast is more than 12 hours old.

Closest forecast is Farnborough Airport, 14.7 nm (27.2 km) NNW. Retrieved 2016/04/18 18:00 UTC (2 years ago):

TAF EGLF 181658Z 1818/1821 26008KT 9999 BKN040